Location: Newark
(33.6333°S, 78.8500°W)
Time: 20:15:16
(UTC+00:00)

Courier 1B - Pass Details

Date: 27 September 2019
Orbit: 962 x 1209 km, 28.3° (Epoch: 21 October)

Event Time Altitude Azimuth Distance (km) Brightness Sun altitude
Rises 17:05:19 0° 346° (NNW) 4,036 11.2 58.1°
Reaches altitude 10° 17:11:06 10° 20° (NNE) 3,121 10.8 58.1°
Maximum altitude 17:12:52 11° 33° (NNE) 3,065 10.7 58.0°
Drops below altitude 10° 17:14:39 10° 46° (NE) 3,139 10.6 58.0°
Sets 17:20:31 0° 80° (E) 4,113 10.8 57.9°
